DW3753 Weather Reports


time (UTC)temp
C
wind
direction
speed
KPH
gust
KPH
rain 1hr
cm
rain 24hr
cm
rain mn
cm
humidity
%
barometer
mb
20260906230815 36 92 3.2 11.3 0.00 0.03 0.03 41 1008.9
20260906225814 36 103 6.4 14.5 0.00 0.03 0.03 41 1009.0
20260906224816 36 82 6.4 17.7 0.00 0.03 0.03 40 1008.9
20260906223812 36 91 4.8 16.1 0.00 0.03 0.03 40 1009.0
20260906222817 36 151 6.4 19.3 0.00 0.03 0.03 40 1009.0
20260906221813 36 140 4.8 16.1 0.00 0.03 0.03 40 1009.1
20260906220812 36 132 3.2 12.9 0.00 0.03 0.03 41 1009.2
20260906215813 36 89 6.4 17.7 0.00 0.03 0.03 40 1009.3
20260906214814 36 80 3.2 12.9 0.00 0.03 0.03 41 1009.3
20260906213814 36 146 4.8 19.3 0.00 0.03 0.03 42 1009.5
20260906212814 36 71 8.0 20.9 0.00 0.03 0.03 41 1009.6
20260906211814 36 94 8.0 20.9 0.00 0.03 0.03 42 1009.6
20260906210812 35 102 8.0 22.5 0.00 0.03 0.03 42 1009.8
20260906205814 35 71 8.0 20.9 0.00 0.03 0.03 44 1009.9
20260906205253 36 68 6.4 22.5 0.00 0.03 0.03 42 1010.1
20260906203812 36 55 6.4 16.1 0.00 0.03 0.03 44 1010.2
20260906202812 36 116 3.2 12.9 0.00 0.03 0.03 42 1010.3
20260906201815 36 103 4.8 14.5 0.00 0.03 0.03 42 1010.3
20260906200813 36 134 8.0 24.1 0.00 0.03 0.03 42 1010.4
20260906195812 36 82 6.4 16.1 0.00 0.03 0.03 45 1010.4
20260906194813 35 54 4.8 12.9 0.00 0.03 0.03 47 1010.5
20260906193814 35 31 6.4 19.3 0.00 0.03 0.03 46 1010.6
20260906192810 35 91 4.8 19.3 0.03 0.03 0.03 47 1010.7
20260906191810 35 74 8.0 22.5 0.03 0.03 0.03 48 1011.1
20260906190814 35 64 8.0 20.9 0.03 0.03 0.03 48 1010.9
20260906185810 35 134 8.0 20.9 0.03 0.03 0.03 45 1011.1
20260906184812 33 87 8.0 17.7 0.03 0.03 0.03 50 1011.1
20260906183808 33 73 6.4 17.7 0.03 0.03 0.03 52 1011.3
20260906182808 34 73 6.4 20.9 0.00 0.00 0.00 48 1011.5
20260906181810 34 79 6.4 19.3 0.00 0.00 0.00 49 1011.6
20260906180805 34 155 4.8 12.9 0.00 0.00 0.00 47 1011.8
20260906175807 33 148 4.8 12.9 0.00 0.00 0.00 47 1011.9
20260906175252 33 107 4.8 14.5 0.00 0.00 0.00 51 1012.2
20260906173800 33 81 6.4 17.7 0.00 0.00 0.00 50 1012.2
20260906172758 33 109 6.4 22.5 0.00 0.00 0.00 54 1012.4
20260906171800 33 94 8.0 17.7 0.00 0.00 0.00 51 1012.5
20260906170756 33 108 6.4 14.5 0.00 0.00 0.00 51 1012.6
20260906165758 33 95 3.2 17.7 0.00 0.00 0.00 52 1012.6
20260906164758 33 63 3.2 11.3 0.00 0.00 0.00 55 1012.8
20260906163749 33 85 4.8 12.9 0.00 0.00 0.00 54 1012.9
20260906162746 32 139 4.8 11.3 0.00 0.00 0.00 55 1012.9
20260906162227 32 86 4.8 11.3 0.00 0.00 0.00 55 1012.9
20260906160745 32 79 4.8 12.9 0.00 0.00 0.00 57 1012.9
20260906155746 32 53 4.8 12.9 0.00 0.00 0.00 58 1012.9
20260906154746 32 165 3.2 8.0 0.00 0.00 0.00 59 1012.9
20260906154709 31 105 1.6 6.4 0.00 0.00 0.00 60 1012.9
20260906152744 31 90 3.2 11.3 0.00 0.00 0.00 60 1012.8
20260906151743 31 158 3.2 8.0 0.00 0.00 0.00 61 1012.7
20260906150738 31 158 1.6 8.0 0.00 0.00 0.00 62 1012.6
20260906145746 31 172 1.6 8.0 0.00 0.00 0.00 62 1012.5
20260906144736 30 110 1.6 4.8 0.00 0.00 0.00 63 1012.5
20260906144226 30 82 3.2 9.7 0.00 0.00 0.00 65 1012.5
20260906142736 30 88 1.6 9.7 0.00 0.00 0.00 65 1012.4
20260906141737 29 103 1.6 4.8 0.00 0.00 0.00 67 1012.6
20260906140741 29 90 1.6 6.4 0.00 0.00 0.00 69 1012.5
20260906135737 28 76 3.2 6.4 0.00 0.00 0.00 69 1012.5
20260906134738 28 86 1.6 6.4 0.00 0.00 0.00 70 1012.4
20260906133736 28 81 1.6 6.4 0.00 0.00 0.00 71 1012.4
20260906133217 28 81 1.6 9.7 0.00 0.00 0.00 73 1012.5
20260906131735 27 94 3.2 8.0 0.00 0.00 0.00 74 1012.4
20260906131209 27 84 1.6 6.4 0.00 0.00 0.00 76 1012.4
20260906130657 26 79 3.2 6.4 0.00 0.00 0.00 77 1012.4
20260906124732 26 142 0.0 3.2 0.00 0.00 0.00 79 1012.3
20260906123730 25 162 0.0 0.0 0.00 0.00 0.00 77 1012.3
20260906122732 25 162 0.0 0.0 0.00 0.00 0.00 77 1012.1
20260906122208 25 162 0.0 1.6 0.00 0.00 0.00 77 1012.0
20260906120732 25 162 0.0 1.6 0.00 0.00 0.00 77 1011.9
20260906115726 25 162 0.0 3.2 0.00 0.00 0.00 77 1011.8
20260906114729 25 162 0.0 0.0 0.00 0.00 0.00 76 1011.7
20260906113727 25 162 0.0 1.6 0.00 0.00 0.00 76 1011.6
20260906112726 26 162 0.0 1.6 0.00 0.00 0.00 75 1011.6
20260906112158 26 162 0.0 1.6 0.00 0.00 0.00 75 1011.4
20260906110726 26 162 0.0 0.0 0.00 0.00 0.00 75 1011.3
20260906110215 26 162 0.0 0.0 0.00 0.00 0.00 75 1011.2
20260906104726 26 162 0.0 0.0 0.00 0.00 0.00 75 1011.1
20260906103727 26 162 0.0 0.0 0.00 0.00 0.00 74 1011.3
20260906102728 26 162 0.0 1.6 0.00 0.00 0.00 74 1011.3
20260906101726 26 162 0.0 0.0 0.00 0.00 0.00 73 1011.2
20260906100726 26 162 0.0 3.2 0.00 0.00 0.00 73 1011.1
20260906100211 26 162 0.0 3.2 0.00 0.00 0.00 73 1010.8
20260906094726 26 162 1.6 6.4 0.00 0.00 0.00 73 1010.8
20260906093726 27 175 1.6 6.4 0.00 0.00 0.00 73 1010.8
20260906092725 27 168 1.6 8.0 0.00 0.00 0.00 72 1010.5
20260906091726 27 162 3.2 6.4 0.00 0.00 0.00 72 1010.6
20260906090720 27 158 3.2 8.0 0.00 0.00 0.00 72 1010.5
20260906085719 27 155 3.2 8.0 0.00 0.00 0.00 72 1010.5
20260906085201 27 157 4.8 12.9 0.00 0.00 0.00 72 1010.4
20260906083718 27 192 4.8 11.3 0.00 0.00 0.00 72 1010.3
20260906082718 27 185 8.0 16.1 0.00 0.00 0.00 72 1010.3
20260906081718 27 190 4.8 9.7 0.00 0.00 0.00 72 1010.3
20260906080718 27 178 3.2 8.0 0.00 0.00 0.00 71 1010.4
20260906075716 27 171 3.2 6.4 0.00 0.00 0.00 71 1010.7
20260906074717 27 169 1.6 8.0 0.00 0.00 0.00 70 1010.8
20260906073718 27 143 1.6 4.8 0.00 0.00 0.00 70 1010.9
20260906072718 28 163 1.6 6.4 0.00 0.00 0.00 69 1010.9
20260906071720 28 153 1.6 6.4 0.00 0.00 0.00 69 1010.7
20260906070720 28 162 3.2 6.4 0.00 0.00 0.00 69 1010.6
20260906065717 28 183 3.2 9.7 0.00 0.00 0.00 69 1010.7
20260906064717 28 145 1.6 4.8 0.00 0.00 0.00 69 1010.9
20260906064157 28 190 3.2 4.8 0.00 0.00 0.00 68 1011.1
20260906062716 28 190 6.4 8.0 0.00 0.00 0.00 68 1011.1
20260906061718 28 185 4.8 9.7 0.00 0.00 0.00 67 1010.9
20260906060718 28 177 3.2 11.3 0.00 0.00 0.00 67 1011.2
20260906055717 28 180 3.2 6.4 0.00 0.00 0.00 66 1011.2
20260906054717 29 180 4.8 9.7 0.00 0.00 0.00 65 1011.2
20260906053718 29 142 3.2 9.7 0.00 0.00 0.00 65 1011.1
20260906052716 29 150 3.2 9.7 0.00 0.00 0.00 65 1011.2
20260906051718 29 151 3.2 9.7 0.00 0.00 0.00 65 1011.2
20260906050710 29 167 3.2 9.7 0.00 0.00 0.00 64 1011.3
20260906045711 30 147 1.6 8.0 0.00 0.00 0.00 64 1011.2
20260906045201 30 161 1.6 6.4 0.00 0.00 0.00 63 1011.1
20260906043711 30 176 3.2 9.7 0.00 0.00 0.00 63 1010.9
20260906042711 30 167 3.2 8.0 0.00 0.00 0.00 62 1010.9
20260906041712 30 147 3.2 9.7 0.00 0.00 0.00 62 1010.8
20260906040710 30 168 1.6 9.7 0.00 0.00 0.00 61 1010.9
20260906035710 30 152 1.6 8.0 0.00 0.00 0.00 60 1010.8
20260906034708 31 173 3.2 12.9 0.00 0.00 0.00 60 1010.9
20260906033710 31 138 1.6 11.3 0.00 0.00 0.00 59 1010.9
20260906032708 31 163 1.6 8.0 0.00 0.00 0.00 58 1010.9
20260906031708 31 115 1.6 8.0 0.00 0.00 0.00 58 1010.8
20260906030710 31 146 3.2 9.7 0.00 0.00 0.00 57 1010.8
20260906025708 31 142 3.2 11.3 0.00 0.00 0.00 56 1010.8
20260906024706 32 150 3.2 12.9 0.00 0.00 0.00 56 1010.7
20260906023705 32 112 3.2 11.3 0.00 0.00 0.00 55 1010.4
20260906022709 32 96 3.2 9.7 0.00 0.00 0.00 54 1010.3
20260906021709 32 97 4.8 12.9 0.00 0.00 0.00 53 1010.2
20260906021147 33 90 4.8 14.5 0.00 0.00 0.00 52 1010.0
20260906015702 33 80 4.8 12.9 0.00 0.00 0.00 50 1009.8
20260906014702 33 88 3.2 6.4 0.00 0.00 0.00 45 1009.5
20260906013700 33 78 1.6 6.4 0.00 0.00 0.00 45 1009.4
20260906012659 33 59 1.6 4.8 0.00 0.00 0.00 44 1009.2
20260906011700 34 82 1.6 4.8 0.00 0.00 0.00 44 1009.1
20260906011142 34 84 1.6 4.8 0.00 0.00 0.00 43 1009.1
20260906005659 35 82 3.2 8.0 0.00 0.00 0.00 42 1009.0
20260906005138 35 88 3.2 9.7 0.00 0.00 0.00 41 1009.0
20260906003700 35 74 3.2 12.9 0.00 0.00 0.00 41 1009.0
20260906002659 35 92 3.2 11.3 0.00 0.00 0.00 41 1009.0
20260906001659 35 85 3.2 9.7 0.00 0.00 0.00 41 1009.0
20260906000700 36 79 6.4 14.5 0.00 0.00 0.00 40 1008.9
20260906000146 36 82 3.2 11.3 0.00 0.00 0.00 40 1008.8
20260905234658 36 80 3.2 6.4 0.00 0.00 0.00 40 1008.8
20260905233700 36 153 4.8 14.5 0.00 0.00 0.00 40 1008.7
20260905232700 36 97 6.4 12.9 0.00 0.00 0.00 39 1008.8